DW2659 Weather Reports


time (UTC)temp
C
wind
direction
speed
KPH
gust
KPH
rain 1hr
cm
rain 24hr
cm
rain mn
cm
humidity
%
barometer
mb
20260903184404 37 333 1.6 4.8 0.00 0.00 0.00 45 1016.4
20260903183403 37 30 1.6 4.8 0.00 0.00 0.00 44 1016.4
20260903182904 38 267 4.8 8.0 0.00 0.00 0.00 42 1016.7
20260903181403 37 17 1.6 4.8 0.00 0.00 0.00 45 1016.7
20260903180905 36 41 1.6 4.8 0.00 0.00 0.00 46 1016.7
20260903180404 36 5 1.6 8.0 0.00 0.00 0.00 46 1016.8
20260903175904 37 244 4.8 8.0 0.00 0.00 0.00 45 1016.8
20260903175405 36 22 3.2 4.8 0.00 0.00 0.00 46 1016.8
20260903174904 36 291 1.6 4.8 0.00 0.00 0.00 47 1016.8
20260903174403 36 31 3.2 11.3 0.00 0.00 0.00 49 1017.1
20260903173905 36 19 1.6 4.8 0.00 0.00 0.00 51 1017.1
20260903173403 36 221 1.6 4.8 0.00 0.00 0.00 50 1017.1
20260903172904 36 247 1.6 4.8 0.00 0.00 0.00 47 1017.2
20260903172405 36 11 1.6 4.8 0.00 0.00 0.00 50 1017.3
20260903171904 36 331 0.0 4.8 0.00 0.00 0.00 49 1017.3
20260903171404 36 42 1.6 4.8 0.00 0.00 0.00 51 1017.6
20260903170404 36 155 1.6 4.8 0.00 0.00 0.00 48 1017.6
20260903165903 35 163 3.2 4.8 0.00 0.00 0.00 46 1017.7
20260903164904 35 87 1.6 4.8 0.00 0.00 0.00 49 1017.7
20260903164404 35 40 1.6 4.8 0.00 0.00 0.00 51 1018.0
20260903163905 35 318 1.6 4.8 0.00 0.00 0.00 53 1018.0
20260903163404 35 132 3.2 4.8 0.00 0.00 0.00 52 1018.0
20260903162904 35 72 3.2 4.8 0.00 0.00 0.00 54 1018.0
20260903162406 34 148 0.0 4.8 0.00 0.00 0.00 54 1018.0
20260903161404 34 173 3.2 4.8 0.00 0.00 0.00 54 1018.1
20260903160905 33 332 1.6 4.8 0.00 0.00 0.00 58 1018.1
20260903155904 34 43 1.6 4.8 0.00 0.00 0.00 55 1018.1
20260903154903 34 46 1.6 4.8 0.00 0.00 0.00 57 1018.1
20260903154404 33 120 0.0 4.8 0.00 0.00 0.00 57 1018.0
20260903153905 33 139 3.2 4.8 0.00 0.00 0.00 57 1018.0
20260903152904 33 16 1.6 4.8 0.00 0.00 0.00 59 1018.0
20260903152405 33 46 3.2 4.8 0.00 0.00 0.00 58 1018.0
20260903151904 33 81 1.6 3.2 0.00 0.00 0.00 56 1018.0
20260903151404 33 30 1.6 3.2 0.00 0.00 0.00 57 1018.1
20260903150404 33 21 1.6 4.8 0.00 0.00 0.00 62 1018.1
20260903145904 32 60 1.6 3.2 0.00 0.00 0.00 62 1018.0
20260903144904 32 91 1.6 3.2 0.00 0.00 0.00 64 1018.0
20260903144404 32 52 1.6 4.8 0.00 0.00 0.00 64 1018.0
20260903143905 32 60 1.6 4.8 0.00 0.00 0.00 63 1018.0
20260903143404 31 102 1.6 4.8 0.00 0.00 0.00 63 1018.0
20260903142904 31 122 3.2 8.0 0.00 0.00 0.00 62 1018.0
20260903142405 31 144 3.2 8.0 0.00 0.00 0.00 62 1018.0
20260903141904 31 152 6.4 9.7 0.00 0.00 0.00 63 1018.0
20260903141402 30 193 1.6 4.8 0.00 0.00 0.00 65 1018.0
20260903140402 30 103 1.6 4.8 0.00 0.00 0.00 70 1018.1
20260903135902 30 194 1.6 8.0 0.00 0.00 0.00 69 1018.1
20260903135403 29 149 3.2 4.8 0.00 0.00 0.00 69 1018.1
20260903134402 28 302 0.0 0.0 0.00 0.00 0.00 75 1018.1
20260903133904 28 349 0.0 0.0 0.00 0.00 0.00 74 1018.1
20260903133402 28 349 0.0 0.0 0.00 0.00 0.00 77 1018.1
20260903132903 27 349 0.0 0.0 0.00 0.00 0.00 78 1018.2
20260903132404 27 349 0.0 0.0 0.00 0.00 0.00 80 1018.2
20260903131902 26 349 0.0 0.0 0.00 0.00 0.00 84 1018.2
20260903131403 26 349 0.0 0.0 0.00 0.00 0.00 86 1018.2
20260903130402 25 349 0.0 0.0 0.00 0.00 0.00 90 1018.2
20260903125902 24 349 0.0 0.0 0.00 0.00 0.00 92 1018.2
20260903125404 23 349 0.0 0.0 0.00 0.00 0.00 93 1018.2
20260903124902 23 349 0.0 0.0 0.00 0.00 0.00 93 1018.2
20260903123904 23 349 0.0 0.0 0.00 0.00 0.00 94 1018.3
20260903123402 22 349 0.0 0.0 0.00 0.00 0.00 94 1018.3
20260903122902 22 349 0.0 0.0 0.00 0.00 0.00 94 1018.2
20260903122404 22 349 0.0 0.0 0.00 0.00 0.00 94 1018.2
20260903121902 22 349 0.0 0.0 0.00 0.00 0.00 93 1018.2
20260903121403 22 349 0.0 0.0 0.00 0.00 0.00 94 1018.2
20260903120903 22 349 0.0 0.0 0.00 0.00 0.00 94 1018.2
20260903120403 22 349 0.0 0.0 0.00 0.00 0.00 94 1018.2
20260903115902 22 349 0.0 0.0 0.00 0.00 0.00 93 1018.1
20260903115403 22 349 0.0 0.0 0.00 0.00 0.00 93 1017.8
20260903114902 22 349 0.0 0.0 0.00 0.00 0.00 93 1017.8
20260903114403 22 349 0.0 0.0 0.00 0.00 0.00 93 1017.8
20260903113903 22 349 0.0 0.0 0.00 0.00 0.00 93 1017.8
20260903113403 22 349 0.0 0.0 0.00 0.00 0.00 93 1017.8
20260903112902 22 349 0.0 0.0 0.00 0.00 0.00 93 1017.7
20260903112403 22 349 0.0 0.0 0.00 0.00 0.00 93 1017.7
20260903111904 22 349 0.0 0.0 0.00 0.00 0.00 93 1017.7
20260903111403 22 349 0.0 0.0 0.00 0.00 0.00 93 1017.5
20260903110403 22 349 0.0 0.0 0.00 0.00 0.00 93 1017.5
20260903105902 22 349 0.0 0.0 0.00 0.00 0.00 92 1017.2
20260903104402 22 349 0.0 0.0 0.00 0.00 0.00 92 1017.2
20260903103903 22 349 0.0 0.0 0.00 0.00 0.00 92 1017.2
20260903102903 22 349 0.0 0.0 0.00 0.00 0.00 92 1017.1
20260903102402 22 349 0.0 0.0 0.00 0.00 0.00 92 1017.1
20260903101904 22 349 0.0 0.0 0.00 0.00 0.00 92 1017.1
20260903101402 22 349 0.0 0.0 0.00 0.00 0.00 92 1017.0
20260903100903 22 349 0.0 0.0 0.00 0.00 0.00 92 1017.0
20260903100405 22 349 0.0 0.0 0.00 0.00 0.00 92 1017.0
20260903095902 22 349 0.0 0.0 0.00 0.00 0.00 92 1017.2
20260903095403 22 349 0.0 0.0 0.00 0.00 0.00 92 1017.2
20260903094904 22 349 0.0 0.0 0.00 0.00 0.00 92 1017.2
20260903094402 22 349 0.0 0.0 0.00 0.00 0.00 92 1017.1
20260903093902 22 349 0.0 0.0 0.00 0.00 0.00 92 1017.1
20260903092903 22 349 0.0 0.0 0.00 0.00 0.00 92 1017.2
20260903092403 22 349 0.0 0.0 0.00 0.00 0.00 92 1017.2
20260903091403 22 349 0.0 0.0 0.00 0.00 0.00 92 1017.1
20260903090903 22 349 0.0 0.0 0.00 0.00 0.00 92 1017.1
20260903090402 22 349 0.0 0.0 0.00 0.00 0.00 92 1017.1
20260903085904 22 349 0.0 0.0 0.00 0.00 0.00 91 1017.2
20260903085402 22 349 0.0 0.0 0.00 0.00 0.00 91 1017.2
20260903084903 22 349 0.0 0.0 0.00 0.00 0.00 91 1017.1
20260903084403 22 349 0.0 0.0 0.00 0.00 0.00 91 1017.2
20260903083903 22 349 0.0 0.0 0.00 0.00 0.00 92 1017.2
20260903083402 22 349 0.0 0.0 0.00 0.00 0.00 91 1017.2
20260903082904 22 349 0.0 0.0 0.00 0.00 0.00 91 1017.2
20260903082403 22 349 0.0 0.0 0.00 0.00 0.00 91 1017.2
20260903081903 22 349 0.0 0.0 0.00 0.00 0.00 91 1017.2
20260903081402 22 349 0.0 0.0 0.00 0.00 0.00 91 1017.0
20260903080904 22 349 0.0 0.0 0.00 0.00 0.00 91 1017.0
20260903080402 22 349 0.0 0.0 0.00 0.00 0.00 91 1017.0
20260903075903 22 349 0.0 0.0 0.00 0.00 0.00 91 1017.1
20260903074902 22 349 0.0 0.0 0.00 0.00 0.00 90 1017.1
20260903074403 22 349 0.0 0.0 0.00 0.00 0.00 90 1016.9
20260903073404 22 349 0.0 0.0 0.00 0.00 0.00 90 1016.9
20260903072902 22 349 0.0 0.0 0.00 0.00 0.00 90 1016.8
20260903072403 22 349 0.0 0.0 0.00 0.00 0.00 90 1016.8
20260903071904 23 349 0.0 0.0 0.00 0.00 0.00 90 1016.8
20260903071402 23 349 0.0 0.0 0.00 0.00 0.00 90 1016.8
20260903070903 23 349 0.0 0.0 0.00 0.00 0.00 90 1016.8
20260903070403 23 349 0.0 0.0 0.00 0.00 0.00 90 1016.8
20260903065404 23 349 0.0 0.0 0.00 0.00 0.00 90 1016.8
20260903064903 23 349 0.0 0.0 0.00 0.00 0.00 90 1016.8
20260903064403 23 349 0.0 0.0 0.00 0.00 0.00 89 1016.9
20260903063903 23 349 0.0 0.0 0.00 0.00 0.00 89 1016.9
20260903063403 23 349 0.0 0.0 0.00 0.00 0.00 89 1016.9
20260903062903 23 349 0.0 0.0 0.00 0.00 0.00 89 1016.9
20260903062405 23 348 0.0 0.0 0.00 0.00 0.00 89 1016.9
20260903061903 23 349 0.0 0.0 0.00 0.00 0.00 89 1016.9
20260903061403 23 349 0.0 0.0 0.00 0.00 0.00 89 1017.0
20260903060902 23 349 0.0 0.0 0.00 0.00 0.00 89 1017.0
20260903055403 23 349 0.0 0.0 0.00 0.00 0.00 88 1017.0
20260903054904 23 349 0.0 0.0 0.00 0.00 0.00 88 1017.0
20260903054403 23 349 0.0 0.0 0.00 0.00 0.00 88 1017.0
20260903053903 23 349 0.0 0.0 0.00 0.00 0.00 88 1017.0
20260903053404 23 349 0.0 0.0 0.00 0.00 0.00 88 1017.0
20260903052903 23 349 0.0 0.0 0.00 0.00 0.00 88 1017.0
20260903052402 23 349 0.0 0.0 0.00 0.00 0.00 88 1017.0
20260903051404 23 349 0.0 0.0 0.00 0.00 0.00 87 1017.0
20260903045904 23 349 0.0 0.0 0.00 0.00 0.00 87 1017.2
20260903045403 23 349 0.0 0.0 0.00 0.00 0.00 86 1017.2
20260903044903 23 349 0.0 0.0 0.00 0.00 0.00 86 1017.2
20260903044403 23 349 0.0 0.0 0.00 0.00 0.00 86 1017.1
20260903043904 23 349 0.0 0.0 0.00 0.00 0.00 86 1017.1
20260903043403 24 349 0.0 0.0 0.00 0.00 0.00 86 1017.1
20260903042903 24 349 0.0 0.0 0.00 0.00 0.00 86 1017.2
20260903042405 24 349 0.0 0.0 0.00 0.00 0.00 85 1017.2
20260903041902 24 349 0.0 0.0 0.00 0.00 0.00 85 1017.1
20260903041403 24 349 0.0 0.0 0.00 0.00 0.00 85 1017.1
20260903040904 24 349 0.0 0.0 0.00 0.00 0.00 85 1017.1
20260903040403 24 349 0.0 0.0 0.00 0.00 0.00 85 1017.1
20260903035903 24 349 0.0 0.0 0.00 0.00 0.00 85 1017.2
20260903034903 24 349 0.0 0.0 0.00 0.00 0.00 84 1017.2
20260903034403 24 349 0.0 0.0 0.00 0.00 0.00 84 1017.3
20260903033904 25 349 0.0 0.0 0.00 0.00 0.00 84 1017.3
20260903033403 25 349 0.0 0.0 0.00 0.00 0.00 83 1017.3
20260903032903 25 349 0.0 0.0 0.00 0.00 0.00 83 1017.3
20260903031903 25 349 0.0 0.0 0.00 0.00 0.00 82 1017.3
20260903031403 25 349 0.0 0.0 0.00 0.00 0.00 82 1017.3
20260903030403 25 349 0.0 0.0 0.00 0.00 0.00 82 1017.4
20260903025903 25 349 0.0 0.0 0.00 0.00 0.00 81 1017.2
20260903025404 25 349 0.0 0.0 0.00 0.00 0.00 81 1017.2
20260903024903 25 349 0.0 0.0 0.00 0.00 0.00 81 1017.2
20260903024404 25 349 0.0 0.0 0.00 0.00 0.00 79 1017.2
20260903023904 25 348 0.0 0.0 0.00 0.00 0.00 79 1017.2
20260903023403 25 349 0.0 0.0 0.00 0.00 0.00 79 1017.2
20260903022903 25 349 0.0 0.0 0.00 0.00 0.00 79 1017.1
20260903022404 25 349 0.0 0.0 0.00 0.00 0.00 79 1017.1
20260903021904 25 349 0.0 0.0 0.00 0.00 0.00 79 1017.1
20260903021403 26 349 0.0 0.0 0.00 0.00 0.00 78 1017.0
20260903020903 26 349 0.0 0.0 0.00 0.00 0.00 78 1017.0
20260903020404 26 349 0.0 0.0 0.00 0.00 0.00 78 1017.0
20260903015904 26 349 0.0 0.0 0.00 0.00 0.00 77 1016.9
20260903015403 26 349 0.0 0.0 0.00 0.00 0.00 77 1016.9
20260903014904 26 349 0.0 0.0 0.00 0.00 0.00 77 1016.9
20260903014403 26 349 0.0 0.0 0.00 0.00 0.00 78 1016.8
20260903013903 26 349 0.0 0.0 0.00 0.00 0.00 76 1016.8
20260903013404 26 349 0.0 0.0 0.00 0.00 0.00 77 1016.8
20260903012403 26 349 0.0 1.6 0.00 0.00 0.00 76 1016.6
20260903011905 26 349 0.0 1.6 0.00 0.00 0.00 75 1016.6
20260903011403 27 349 0.0 1.6 0.00 0.00 0.00 75 1016.5
20260903010903 27 349 1.6 1.6 0.00 0.00 0.00 75 1016.5
20260903005903 27 349 0.0 0.0 0.00 0.00 0.00 73 1016.5
20260903005403 27 349 0.0 1.6 0.00 0.00 0.00 73 1016.5
20260903004905 27 348 0.0 1.6 0.00 0.00 0.00 74 1016.5
20260903004403 27 349 0.0 1.6 0.00 0.00 0.00 72 1016.3
20260903003405 28 349 0.0 0.0 0.00 0.00 0.00 71 1016.3
20260903002903 28 349 0.0 0.0 0.00 0.00 0.00 68 1016.3
20260903002403 28 349 0.0 1.6 0.00 0.00 0.00 68 1016.3
20260903001904 28 348 0.0 1.6 0.00 0.00 0.00 68 1016.3
20260903001403 28 349 0.0 1.6 0.00 0.00 0.00 67 1016.2
20260903000903 29 349 0.0 1.6 0.00 0.00 0.00 67 1016.2
20260903000404 29 349 0.0 0.0 0.00 0.00 0.00 66 1016.2
20260902235904 30 349 0.0 0.0 0.00 0.00 0.00 66 1016.2
20260902235403 30 349 0.0 0.0 0.00 0.00 0.00 66 1016.2
20260902234905 30 348 0.0 0.0 0.00 0.00 0.00 67 1016.2
20260902234403 30 348 0.0 0.0 0.00 0.00 0.00 66 1016.2
20260902233904 30 348 0.0 0.0 0.00 0.00 0.00 65 1016.2
20260902233404 31 348 0.0 0.0 0.00 0.00 0.00 64 1016.2
20260902232903 31 348 0.0 1.6 0.00 0.00 0.00 64 1016.2
20260902232403 31 348 0.0 0.0 0.00 0.00 0.00 63 1016.2
20260902230904 32 348 0.0 0.0 0.00 0.00 0.00 60 1016.2
20260902225404 32 348 0.0 1.6 0.00 0.00 0.00 58 1016.2
20260902224904 33 348 0.0 0.0 0.00 0.00 0.00 57 1016.2
20260902223903 33 348 0.0 0.0 0.00 0.00 0.00 56 1016.2
20260902223405 33 348 0.0 0.0 0.00 0.00 0.00 57 1016.2
20260902222403 35 348 0.0 0.0 0.00 0.00 0.00 53 1016.1
20260902221905 35 348 0.0 0.0 0.00 0.00 0.00 51 1016.2
20260902221403 35 348 0.0 0.0 0.00 0.00 0.00 52 1016.3
20260902220903 36 348 0.0 0.0 0.00 0.00 0.00 52 1016.4
20260902220404 36 349 0.0 0.0 0.00 0.00 0.00 52 1016.4
20260902215903 36 349 0.0 0.0 0.00 0.00 0.00 51 1016.4
20260902215403 36 348 0.0 0.0 0.00 0.00 0.00 52 1016.4
20260902214904 36 348 0.0 0.0 0.00 0.00 0.00 50 1016.4
20260902214404 36 348 0.0 0.0 0.00 0.00 0.00 50 1016.4
20260902213904 37 348 0.0 0.0 0.00 0.00 0.00 48 1016.4
20260902213404 37 349 0.0 0.0 0.00 0.00 0.00 49 1016.4
20260902212904 37 348 0.0 0.0 0.00 0.00 0.00 49 1016.5
20260902212403 37 349 0.0 0.0 0.00 0.00 0.00 49 1016.5
20260902211403 37 348 0.0 3.2 0.00 0.00 0.00 47 1016.6
20260902210903 37 349 1.6 3.2 0.00 0.00 0.00 48 1016.6
20260902210405 37 348 1.6 3.2 0.00 0.00 0.00 47 1016.6
20260902205903 37 222 1.6 3.2 0.00 0.00 0.00 43 1016.6
20260902204904 37 19 0.0 3.2 0.00 0.00 0.00 45 1016.6
20260902204403 37 18 0.0 3.2 0.00 0.00 0.00 47 1016.7
20260902203903 37 117 0.0 1.6 0.00 0.00 0.00 46 1016.7
20260902203405 37 117 0.0 1.6 0.00 0.00 0.00 46 1017.1
20260902202403 37 111 1.6 3.2 0.00 0.00 0.00 41 1017.1
20260902201905 37 22 0.0 1.6 0.00 0.00 0.00 43 1017.1
20260902201403 37 23 0.0 1.6 0.00 0.00 0.00 44 1017.1
20260902200904 37 6 0.0 4.8 0.00 0.00 0.00 45 1017.1
20260902200404 37 46 1.6 4.8 0.00 0.00 0.00 41 1017.3
20260902195903 37 5 1.6 4.8 0.00 0.00 0.00 47 1017.3
20260902195404 37 35 1.6 4.8 0.00 0.00 0.00 45 1017.3
20260902194904 37 240 3.2 4.8 0.00 0.00 0.00 42 1017.3
20260902194404 37 119 3.2 4.8 0.00 0.00 0.00 41 1017.7
20260902193903 37 277 1.6 3.2 0.00 0.00 0.00 43 1017.7
20260902193405 36 355 1.6 1.6 0.00 0.00 0.00 43 1017.7
20260902192904 36 355 0.0 3.2 0.00 0.00 0.00 43 1017.7
20260902192403 36 77 1.6 3.2 0.00 0.00 0.00 43 1017.7
20260902191904 36 34 1.6 4.8 0.00 0.00 0.00 46 1017.7
20260902191404 35 74 3.2 4.8 0.00 0.00 0.00 47 1018.1
20260902190904 35 82 0.0 3.2 0.00 0.00 0.00 45 1018.1
20260902190405 35 64 3.2 4.8 0.00 0.00 0.00 45 1018.1
20260902185904 35 114 3.2 8.0 0.00 0.00 0.00 45 1018.1
20260902185403 36 123 3.2 9.7 0.00 0.00 0.00 45 1018.1
20260902184905 36 124 1.6 4.8 0.00 0.00 0.00 46 1018.1